Regional Weather Roundup
Issued by NWS

Home | Current Version | Previous Version | Text Only | Print | Product List | Glossary On
Versions: 1 2 3 4 5 6 7 8 9 10 11 12 13 14 15 16 17 18 19 20 21 22 23 24 25 26 27
000
ASCA42 TJSJ 310010
RWRPR
PUERTO RICO/U.S. VIRGIN ISLANDS HOURLY WEATHER ROUNDUP
NATIONAL WEATHER SERVICE SAN JUAN PR
800 PM AST MON MAY 30 2016

PRZ001-004-310100-
PUERTO RICO

CITY           SKY/WX    TMP DP  RH WIND       PRES   REMARKS
SAN JUAN LMM   PTCLDY    79  79 100 SE5       29.97R
AGUADILLA      PTCLDY    77  75  94 E7        29.97R
CEIBA          MOCLDY    81  75  83 E7        30.00R
$$

PRZ006-007-310100-
U.S. VIRGIN ISLANDS

CITY           SKY/WX    TMP DP  RH WIND       PRES   REMARKS
CHARLOTTE AMA  PTCLDY    84  77  79 SE12      29.97  HX  94
CHRISTIANSTED  LGT RAIN  81  75  83 E13       29.98R
$$

HOURLY WEATHER ROUNDUP FOR THE NEWS MEDIA

CITY           SKY/WX    TMP DP  RH WIND       PRES   REMARKS
ORLANDO        CLOUDY    83  68  60 SW7       29.95R
NEW YORK       CLOUDY    68  66  93 S17       29.96R
NEWARK         CLOUDY    76  70  82 S13       29.94R
CHICAGO        MOSUNNY   81  57  43 NE10      29.95S
HARTFORD       CLOUDY    69  67  93 SW10G20   29.92F
BOSTON         CLOUDY    70  67  90 SW18G24   29.88S
DALLAS         MOSUNNY   84  62  47 W3        29.88F
PHILADELPHIA   CLOUDY    73  68  84 S10       29.97R
LOS ANGELES    PTSUNNY   65  56  72 W16       29.92F
WASHINGTON DC  MOCLDY    76  68  76 S8        29.96R



USA.gov is the U.S. government's official web portal to all federal, state and local government web resources and services.